Regional Weather Roundup
Issued by NWS Mt. Holly, NJ

Home | Current Version | Previous Version | Text Only | Print | Product List | Glossary On
Versions: 1 2 3 4 5 6 7 8 9 10 11 12 13 14 15 16 17 18 19 20 21 22 23 24 25 26 27 28 29 30 31 32 33 34 35 36 37 38 39 40 41 42 43 44 45 46 47 48 49 50
000
ASUS41 KPHI 260511
RWRPHI

REGIONAL WEATHER ROUNDUP
NATIONAL WEATHER SERVICE MOUNT HOLLY NJ
100 AM EDT SUN APR 26 2015

NOTE:  "FAIR" INDICATES FEW OR NO CLOUDS BELOW 12,000 FEET WITH NO
SIGNIFICANT WEATHER AND/OR OBSTRUCTIONS TO VISIBILITY.

 * = STATION DOES NOT REPORT PRECIPITATION (E.G. RAIN, SNOW, ETC.)
        OR FOG.

NJZ015>026-260600-
SOUTHERN NEW JERSEY

CITY           SKY/WX    TMP DP  RH WIND       PRES   REMARKS
POMONA         CLOUDY    46  34  62 W3        29.68F
MILLVILLE      CLOUDY    45  39  79 W3        29.68F
WRIGHTSTOWN    CLOUDY    43  30  59 SW3       29.65F
MOUNT HOLLY    CLOUDY    46  35  65 CALM      29.68F
TRENTON        MOCLDY    46  27  47 NW7       29.68F

$$
NJZ001>014-260600-
NORTHERN NEW JERSEY

CITY           SKY/WX    TMP DP  RH WIND       PRES   REMARKS
SUSSEX         PTCLDY    37  28  70 CALM      29.72S
ANDOVER*         N/A     42  31  64 CALM      29.70F
MORRISTOWN     MOCLDY    48  28  46 CALM      29.70F
NEWARK         MOCLDY    50  28  42 N12       29.69F
TETERBORO      MOCLDY    50  26  39 N3        29.69F
CALDWELL       MOCLDY    48  26  42 CALM      29.70F
SOMERVILLE     MOCLDY    39  32  76 CALM      29.68F
ALLAIRE*       MOCLDY    45  25  45 W5        29.68F
TOMS RIVER*    CLOUDY    43  32  65 CALM      29.67F

$$
PAZ043-044-047-054-055-060>062-066>071-260600-
EASTERN PENNSYLVANIA

CITY           SKY/WX    TMP DP  RH WIND       PRES   REMARKS
PHILADELPHIA   CLOUDY    48  37  65 W7        29.69F
NORTH PHILA    CLOUDY    48  29  47 W5        29.69F
BLUE BELL      MOCLDY    46  34  61 CALM      29.68F
DOYLESTOWN     MOCLDY    43  26  51 CALM      29.68F
QUAKERTOWN*    PTCLDY    46  27  46 N5        29.69F
POTTSTOWN      MOCLDY    41  30  65 CALM      29.70F
LANCASTER      MOCLDY    41  29  62 W8        29.69F
COATESVILLE    CLOUDY    41  36  81 NW5       29.69F
READING        MOCLDY    43  29  57 CALM      29.69F
ALLENTOWN      PTCLDY    44  28  53 CALM      29.70F
MOUNT POCONO   MOCLDY    39  24  55 N9        29.68F WCI  33
HAZLETON       MOCLDY    41  27  56 N6        29.71F
WILKES BARRE   PTCLDY    42  25  50 NE3       29.71F

$$
DEZALL-MDZ008-012-015-019-020-260600-
DELAWARE AND EASTERN MARYLAND

CITY           SKY/WX    TMP DP  RH WIND       PRES   REMARKS
WILMINGTON     CLOUDY    46  37  71 W5        29.69F
DOVER          CLOUDY    45  42  90 W5        29.64F
GEORGETOWN     CLOUDY    42  40  92 SW5       29.71F
EASTON         DRIZZLE   44  44 100 SW6       29.75F
PATUXENT       CLOUDY    44  40  85 NE12      29.72S
OCEAN CITY     CLOUDY    43  39  86 N6        29.71F
WALLOPS ISLAND CLOUDY    44  43  96 N7        29.70S
CAMBRIDGE      MOCLDY    45  41  87 NE6       29.72S
SALISBURY      CLOUDY    43  41  93 N6        29.71F

$$
PAZ001-021-NYZ056-072-MDZ011-DCZ001-260600-
OTHER NEARBY LOCATIONS

CITY           SKY/WX    TMP DP  RH WIND       PRES   REMARKS
HARRISBURG     MOCLDY    44  31  60 NW7       29.70R
STATE COLLEGE  PTCLDY    40  26  57 NE7       29.70S
WILLIAMSPORT   PTCLDY    45  24  43 NE6       29.72F
BINGHAMTON     CLEAR     35  25  66 N8        29.72F WCI  29
NEW YORK CITY  MOCLDY    52  26  36 VRB6      29.72S
BALTIMORE      CLOUDY    42  39  89 CALM      29.71R
WASHINGTON DC  CLOUDY    46  39  76 E3        29.73F

$$


USA.gov is the U.S. government's official web portal to all federal, state and local government web resources and services.